User: anonymous   Login
Location: Unspecified
(50.0959°N, 14.3921°E)
Time: 01:55:13
(UTC+01:00)
Language:

Chandra X-Ray Observatory - Orbit

View from above orbital plane
View from above orbital plane
View from above satellite
View from above satellite

Ground track
Ground track

The orbit data is extracted from the following two-line orbital elements,

1 25867U 99040B   19044.93286490  .00000646  00000-0  00000+0 0  9994
2 25867  69.0813 278.2017 7068558 236.5759   0.2425  0.37800355 18340
Epoch (UTC): 13 February 2019 22:23:19
Eccentricity: 0.7068558
inclination: 69.0813°
perigee height: 17307 km
apogee height: 131532 km
right ascension of ascending node: 278.2017°
argument of perigee: 236.5759°
revolutions per day: 0.37800355
mean anomaly at epoch: 0.2425°
orbit number at epoch: 1834

The dashed part of the orbit path shows where the satellite is in the earth's shadow,  

DLR